EHI
42 42 46 43 29 17 12 9 7 6 5 5 6 9 11 12 10 10 11 10 8 7 7 6 6 4 5 6 8 9 8 6 6 6 4 4 5 7 8 5 2 3 6
44 43 46 44 32 19 11 9 7 5 4 5 6 8 11 12 10 8 8 8 7 6 6 6 5 5 5 7 8 8 6 5 5 5 4 2 3 6 7 6 4 5 6
42 42 45 45 36 22 14 11 7 4 3 5 7 8 10 11 10 7 6 6 6 5 5 5 4 5 6 7 7 6 4 3 3 3 2 1 2 5 7 6 6 7 7
39 41 45 47 41 28 19 14 10 6 3 3 5 7 8 10 9 7 6 6 6 6 6 4 4 4 6 6 5 4 3 2 1 1 0 0 1 3 5 6 7 7 7
38 40 46 48 44 35 25 18 13 8 5 3 4 5 7 9 8 7 6 6 6 6 7 6 5 4 5 5 4 3 3 2 1 0 0 1 1 3 4 5 5 6 7
38 41 46 48 45 38 30 23 17 12 8 5 4 5 7 8 8 7 6 6 7 8 9 8 7 6 5 3 2 2 2 2 2 0 1 2 2 3 4 3 4 5 6
37 42 48 49 45 39 34 29 23 18 14 10 8 8 8 8 8 8 8 8 10 11 11 10 9 8 5 2 1 0 1 2 1 0 1 3 3 4 4 4 3 3 3
40 44 49 48 43 38 36 32 28 25 22 17 14 11 10 9 9 9 10 11 11 11 11 10 9 7 4 2 0 0 1 1 1 0 1 4 6 7 7 6 5 4 2
42 45 46 43 39 35 33 32 30 29 27 23 18 15 12 10 8 7 8 11 11 10 10 9 8 5 3 2 1 1 1 1 0 0 2 6 10 11 9 8 7 5 4
40 43 42 37 34 29 28 30 30 29 28 25 20 15 11 9 6 4 5 8 9 9 9 9 6 3 2 2 2 2 1 0 0 1 3 7 12 13 11 9 7 6 6
34 40 40 37 33 27 25 29 30 27 25 23 18 13 10 7 4 2 5 8 9 9 9 8 4 2 1 2 4 4 2 1 0 2 6 9 12 13 11 9 7 5 4
33 37 39 39 35 29 29 33 31 27 23 18 15 14 12 8 5 5 8 12 11 9 8 6 3 1 0 1 3 3 2 2 1 4 8 10 11 10 9 9 7 3 1
35 36 38 39 36 32 35 38 34 30 27 21 18 19 16 11 8 10 13 13 12 9 7 5 3 1 0 0 1 1 1 1 2 4 8 11 11 8 7 7 6 2 0
38 38 41 43 43 42 41 40 36 35 34 31 28 25 19 14 13 14 15 12 9 8 7 5 4 2 1 1 0 0 1 1 3 4 7 11 11 8 7 6 5 2 1
43 45 47 51 54 53 48 43 40 40 41 39 36 29 22 19 17 15 14 11 9 8 8 6 4 4 4 3 1 1 2 3 3 3 6 10 11 10 9 7 6 4 3
49 51 53 56 60 58 53 47 44 43 42 39 36 31 25 23 20 16 12 11 10 10 8 6 4 5 6 6 4 3 3 4 3 3 4 7 9 10 9 8 6 5 5
52 53 54 55 57 57 54 48 43 39 35 33 32 30 26 24 21 16 12 11 11 11 9 6 5 6 6 7 7 5 4 5 4 3 3 4 6 7 7 6 4 3 3
53 54 54 52 52 53 51 44 36 32 30 27 27 28 27 24 20 16 12 10 10 10 9 6 5 5 4 5 7 6 5 4 4 3 3 3 3 4 4 3 3 2 1
53 55 53 51 49 47 44 38 32 30 29 27 26 28 28 24 19 15 12 10 9 9 8 6 4 4 4 4 5 5 4 3 2 1 2 2 2 2 2 2 2 2 1
51 53 52 51 49 44 39 35 31 29 28 26 27 29 28 23 16 13 12 10 9 8 7 5 4 4 4 3 4 4 3 3 2 1 1 1 1 1 1 1 1 1 1
46 46 48 48 46 40 36 35 32 27 24 23 25 28 27 19 12 10 10 11 10 8 6 5 4 4 4 4 3 3 2 2 2 1 0 0 0 0 0 0 1 1 1
41 41 42 42 40 36 35 34 31 26 22 21 23 26 24 18 12 9 10 10 10 8 6 5 4 3 4 4 3 2 2 2 2 1 0 1 1 1 1 1 1 2 3
42 41 40 41 39 37 35 32 28 26 23 22 25 25 21 17 13 11 11 10 9 8 7 6 5 4 4 4 4 3 3 3 4 2 2 3 3 3 3 2 3 4 4
42 41 42 45 45 41 37 31 27 26 25 25 27 25 20 15 13 14 13 12 10 9 8 7 6 6 5 4 4 4 4 5 5 4 3 3 3 3 3 3 3 4 4
39 40 43 48 48 43 38 33 29 27 26 27 28 25 20 15 14 14 15 15 14 11 10 10 9 8 7 5 5 6 6 6 5 4 3 3 3 3 4 5 6 5 5
36 39 43 47 47 44 39 35 31 28 26 27 28 26 21 17 14 14 15 18 17 13 11 12 12 10 8 7 6 8 8 6 5 4 3 3 4 4 5 7 8 8 8
Wind_Speed
16 16 16 14 13 12 11 10 10 10 10 10 10 10 11 11 11 11 11 11 11 12 12 12 12 13 13 13 13 13 12 11 11 12 12 12 12 11 10 9 8 9 12
18 17 16 15 13 12 11 10 10 10 10 10 10 10 10 10 10 10 10 10 10 11 11 11 11 12 12 12 12 11 10 9 9 10 11 11 11 10 10 9 9 8 10
17 16 15 14 13 12 11 10 10 10 10 10 10 10 10 10 10 9 10 10 10 10 10 11 11 11 11 10 10 9 8 6 6 6 7 6 8 10 10 10 10 10 9
16 14 14 15 13 12 11 11 10 10 10 9 9 9 9 9 9 9 9 9 9 9 9 10 10 10 10 9 8 7 5 4 3 2 2 4 6 10 10 9 9 9 9
14 14 15 15 14 12 11 11 10 10 9 9 9 9 9 9 9 9 9 9 9 8 9 9 9 9 8 7 6 5 3 2 2 1 2 5 5 9 10 8 8 8 8
14 15 16 15 14 13 12 11 10 10 9 9 9 8 8 8 8 8 8 8 8 8 8 8 8 8 7 6 5 3 2 2 3 1 2 6 6 9 9 7 7 7 7
12 15 16 15 14 13 12 11 10 10 9 9 8 8 8 8 7 7 7 8 7 7 8 8 8 7 6 5 3 2 1 2 2 1 5 6 7 10 8 6 6 6 6
13 15 14 15 15 14 12 11 10 10 9 9 8 8 8 7 7 7 7 7 7 7 7 7 7 7 6 4 3 1 1 3 1 3 6 6 8 9 8 6 5 6 6
13 14 13 13 12 13 12 11 10 10 9 9 9 8 8 8 8 7 7 7 7 7 7 7 7 6 6 4 3 1 1 3 3 2 5 6 8 9 9 7 6 6 6
11 12 12 12 11 11 11 12 11 10 10 9 9 9 8 8 8 8 8 7 7 7 7 7 6 6 5 4 3 1 1 3 0 3 4 6 9 9 9 7 6 6 6
9 10 10 10 10 10 10 11 11 11 10 9 8 9 8 6 7 7 8 9 8 7 7 7 7 7 5 4 4 3 2 1 2 3 4 8 10 9 9 8 6 7 6
8 8 9 9 9 8 7 8 7 8 8 7 6 8 6 4 4 6 9 10 9 8 7 8 8 7 5 4 5 4 2 2 1 3 5 10 9 9 8 7 7 6 6
7 6 7 8 7 7 5 6 4 4 5 6 6 6 4 3 3 5 4 6 5 6 5 6 6 4 3 2 2 3 2 1 2 4 6 10 9 9 8 7 6 6 5
6 6 6 8 6 5 4 4 4 4 4 4 4 5 4 2 2 3 3 4 4 3 3 3 2 2 2 2 2 2 2 1 3 4 5 10 9 8 8 7 6 5 5
5 5 5 6 5 4 3 2 3 3 3 4 4 4 3 3 2 2 2 2 2 2 2 2 1 1 1 2 2 2 2 3 4 4 4 8 8 7 7 6 5 5 4
5 5 5 7 6 5 3 1 2 3 3 3 3 4 3 3 2 2 3 2 2 2 2 2 2 1 1 1 1 2 2 2 4 3 4 5 7 7 7 6 5 5 4
5 5 5 7 6 5 4 3 2 2 3 3 3 4 4 3 3 2 2 2 2 2 3 2 2 1 1 1 1 1 1 1 3 3 3 3 4 6 7 6 6 5 5
5 5 4 5 6 5 3 2 2 2 3 3 3 3 4 4 4 2 3 3 2 2 2 2 2 1 1 1 1 0 1 2 2 3 3 3 3 4 6 7 7 6 5
5 5 4 5 6 5 4 3 3 2 3 3 3 3 3 4 4 3 2 3 3 2 2 2 2 1 1 1 1 1 1 1 2 2 2 2 3 3 4 6 8 8 7
6 6 5 5 5 5 4 3 2 3 3 3 3 3 4 4 4 3 3 3 2 2 2 2 2 1 1 1 1 1 1 2 2 2 2 2 3 3 4 5 5 5 7
7 6 5 5 5 4 3 4 3 3 3 3 3 4 5 4 4 3 3 3 2 2 2 3 2 2 1 1 0 1 2 3 2 2 2 2 2 3 3 4 4 3 4
7 7 6 5 5 4 3 3 3 3 3 3 3 4 5 4 4 4 4 3 2 2 2 2 1 1 1 2 1 1 1 1 1 3 2 3 3 2 3 4 4 4 3
7 7 6 5 5 4 4 3 3 3 3 4 4 4 4 5 4 3 4 4 3 3 2 2 2 2 1 2 1 1 1 1 1 2 3 2 2 2 2 2 3 4 4
7 7 7 6 5 4 4 4 5 4 4 4 4 4 4 5 5 4 4 4 3 2 3 3 2 1 2 2 1 1 1 0 0 0 1 2 3 3 2 2 2 3 3
7 7 7 6 5 5 4 4 5 4 4 3 4 5 5 4 4 4 4 4 3 2 2 2 2 2 1 2 1 1 2 2 2 1 1 1 1 2 3 2 2 2 3
7 7 7 6 5 5 5 5 5 5 5 5 5 6 4 3 3 4 5 4 3 2 2 2 2 2 1 1 1 2 1 1 2 1 2 2 2 2 2 2 2 2 2
Wind_Direction
112 119 122 121 119 115 112 111 110 111 109 106 104 101 100 99 98 98 98 97 97 97 97 94 90 89 88 85 84 85 89 93 96 100 104 105 104 100 96 99 108 103 104
116 122 124 123 121 118 116 115 115 113 112 110 108 105 105 105 104 103 102 101 100 101 100 98 94 93 92 90 90 91 94 99 107 112 114 113 111 106 100 95 94 104 108
115 124 127 125 124 122 120 118 117 116 115 114 112 111 111 110 109 109 108 106 104 104 104 102 98 97 96 94 93 95 99 104 116 124 132 131 118 112 108 103 103 111 113
119 127 127 129 128 127 125 122 121 122 120 120 118 117 116 116 114 113 113 112 110 108 108 106 103 100 98 95 95 96 97 95 102 118 146 133 120 115 112 111 112 117 116
118 122 124 133 132 131 129 128 127 128 126 127 126 124 122 121 119 117 117 116 115 113 111 109 108 107 104 102 99 96 92 71 18 299 113 104 99 116 113 116 118 119 120
129 128 133 139 136 135 134 134 133 130 129 130 130 129 128 125 123 124 122 120 118 117 115 113 111 111 111 108 103 96 76 21 337 296 100 110 106 108 109 117 122 124 128
130 126 137 140 139 139 140 139 138 135 133 133 133 132 130 131 131 131 129 127 125 123 120 119 118 118 120 117 114 105 54 341 287 43 84 94 105 115 114 118 123 127 139
129 126 134 143 144 145 145 144 142 140 138 137 138 138 138 139 138 137 138 136 133 130 126 125 126 127 130 133 139 130 342 305 336 90 101 100 104 115 117 117 123 132 137
129 129 140 146 149 150 148 149 147 146 145 146 146 146 148 149 148 146 143 140 141 138 134 133 134 137 141 147 160 182 294 316 313 65 93 95 110 115 115 112 115 124 130
131 134 144 149 151 155 155 157 156 155 156 157 158 159 159 160 161 159 152 146 147 146 144 144 144 147 148 156 173 184 281 308 311 88 90 105 111 112 111 112 115 122 125
136 136 146 148 152 158 158 157 162 163 166 167 170 173 175 177 168 166 155 150 156 159 158 158 159 159 160 175 198 214 257 257 83 94 95 107 110 109 109 107 108 111 118
147 147 150 150 153 159 154 150 167 171 171 183 173 174 188 182 161 147 146 156 164 167 169 173 176 178 190 189 194 206 230 194 123 108 109 117 116 114 111 111 107 108 111
150 154 146 142 150 154 143 154 165 163 166 184 175 169 173 165 152 142 148 154 166 173 180 177 189 197 195 180 172 171 202 147 116 106 118 124 122 120 115 112 110 113 118
152 156 143 141 143 139 138 153 151 159 164 164 159 168 163 164 157 150 155 161 170 173 172 172 198 175 173 178 178 170 158 133 103 113 126 130 130 128 127 127 123 119 122
143 144 134 129 126 120 122 163 155 152 152 144 153 162 158 151 156 148 142 148 157 144 148 151 137 125 154 167 181 131 99 108 114 114 126 140 140 140 141 141 138 133 132
139 137 134 136 127 129 138 150 126 138 132 136 138 150 156 145 143 147 141 141 131 131 133 136 123 133 131 112 94 96 99 107 111 115 129 146 152 152 153 154 151 148 148
133 130 133 135 131 138 147 159 142 145 143 140 133 141 147 143 140 151 145 145 138 127 124 126 123 141 156 138 107 109 115 104 117 133 150 158 160 164 165 165 164 162 164
136 131 140 146 139 142 142 153 146 152 142 139 135 139 147 141 143 153 152 143 145 146 148 147 167 165 130 112 130 176 140 135 157 170 176 172 165 163 172 177 177 174 177
134 134 138 131 140 144 147 152 150 151 144 137 135 142 152 151 156 159 142 135 159 150 152 174 142 130 138 160 192 192 184 170 182 188 173 170 163 162 164 174 181 187 191
130 130 139 135 135 142 153 163 160 149 144 137 138 141 146 152 154 156 140 142 160 149 142 115 119 129 170 204 236 177 188 200 192 171 183 175 175 175 167 166 179 196 197
132 137 143 147 146 150 159 170 168 167 162 151 149 151 151 156 153 156 143 151 167 155 149 146 149 168 184 165 251 237 231 207 180 181 193 186 192 182 168 170 179 183 188
147 151 155 155 153 163 164 171 167 166 165 154 148 148 152 154 161 167 157 159 157 154 158 160 149 177 195 186 214 215 221 202 222 209 191 203 203 193 189 191 177 176 179
157 161 165 160 158 167 159 161 158 159 160 152 151 156 161 166 169 164 159 160 167 168 158 176 174 196 216 204 201 256 250 202 215 209 214 207 185 211 219 192 182 170 173
162 163 157 156 159 164 162 167 173 176 173 162 160 158 165 167 168 167 159 163 171 169 162 186 175 213 217 236 197 209 250 2 230 243 254 215 199 211 227 237 194 174 173
162 160 156 157 167 171 181 180 183 177 172 159 154 152 163 167 172 167 156 152 159 170 160 170 156 200 217 245 249 235 237 234 236 216 245 232 232 225 217 209 204 186 180
164 160 156 158 169 174 182 185 192 187 179 166 163 160 166 165 172 170 162 156 164 172 170 173 173 195 219 252 273 277 254 242 238 229 238 230 231 233 217 202 199 195 188